• In Romania
  • List of Countries
  • For 7 days
  • Water Temperature
  • Satellite Maps
  • Weather Map
  • Weather Widgets
  • user-avatar
    Login

    Hourly Weather La Rioja

    Today, 19 September, Tuesday

    Time Temperature Precipitation Wind Pressure Humidity
    00:00 +23°C° 0 mm 2 mps 712 mmHg 43%
    01:00 +23°C° 0 mm 2 mps 712 mmHg 45%
    02:00 +21°C° 0 mm 2 mps 712 mmHg 48%
    03:00 +20°C° 0 mm 2 mps 711 mmHg 49%
    04:00 +20°C° 0 mm 2 mps 711 mmHg 51%
    05:00 +19°C° 0 mm 2 mps 711 mmHg 52%
    06:00 +20°C° 0 mm 2 mps 711 mmHg 48%
    07:00 +23°C° 0 mm 2 mps 711 mmHg 45%
    08:00 +24°C° 0 mm 2 mps 711 mmHg 41%
    09:00 +26°C° 0 mm 2 mps 711 mmHg 37%
    10:00 +28°C° 0 mm 2 mps 711 mmHg 32%
    11:00 +29°C° 0 mm 2 mps 710 mmHg 28%
    12:00 +31°C° 0 mm 3 mps 709 mmHg 25%
    13:00 +33°C° 0 mm 3 mps 708 mmHg 23%
    14:00 +35°C° 0 mm 3 mps 708 mmHg 20%
    15:00 +35°C° 0 mm 3 mps 707 mmHg 20%
    16:00 +35°C° 0 mm 3 mps 707 mmHg 19%
    17:00 +35°C° 0 mm 2 mps 706 mmHg 19%
    18:00 +32°C° 0 mm 2 mps 707 mmHg 22%
    19:00 +31°C° 0 mm 2 mps 707 mmHg 26%
    20:00 +29°C° 0 mm 2 mps 707 mmHg 29%
    21:00 +28°C° 0 mm 2 mps 708 mmHg 30%
    22:00 +28°C° 0 mm 2 mps 708 mmHg 31%
    23:00 +27°C° 0 mm 1 mps 708 mmHg 32%

    Tomorrow, 20 September, Wednesday

    Time Temperature Precipitation Wind Pressure Humidity
    00:00 +27°C° 0 mm 2 mps 708 mmHg 32%
    01:00 +26°C° 0 mm 2 mps 708 mmHg 32%
    02:00 +26°C° 0 mm 2 mps 708 mmHg 33%
    03:00 +25°C° 0 mm 2 mps 708 mmHg 34%
    04:00 +24°C° 0 mm 3 mps 708 mmHg 35%
    05:00 +24°C° 0 mm 3 mps 709 mmHg 36%
    06:00 +25°C° 0 mm 5 mps 710 mmHg 36%
    07:00 +24°C° 0 mm 7 mps 711 mmHg 35%
    08:00 +26°C° 0 mm 8 mps 713 mmHg 35%
    09:00 +27°C° 0 mm 9 mps 713 mmHg 33%
    10:00 +28°C° 0 mm 9 mps 714 mmHg 30%
    11:00 +29°C° 0 mm 9 mps 714 mmHg 28%
    12:00 +29°C° 0 mm 9 mps 714 mmHg 27%
    13:00 +31°C° 0 mm 10 mps 714 mmHg 26%
    14:00 +31°C° 0 mm 10 mps 714 mmHg 25%
    15:00 +29°C° 0 mm 10 mps 714 mmHg 29%
    16:00 +27°C° 0 mm 10 mps 715 mmHg 32%
    17:00 +26°C° 0 mm 10 mps 715 mmHg 35%
    18:00 +23°C° 0 mm 9 mps 716 mmHg 40%
    19:00 +22°C° 0 mm 8 mps 718 mmHg 44%
    20:00 +20°C° 0 mm 7 mps 719 mmHg 48%
    21:00 +20°C° 0 mm 6 mps 720 mmHg 50%
    22:00 +19°C° 0 mm 5 mps 720 mmHg 51%
    23:00 +19°C° 0 mm 4 mps 721 mmHg 52%

    Day after tomorrow, 21 September, Thursday

    Time Temperature Precipitation Wind Pressure Humidity
    00:00 +18°C° 0 mm 4 mps 721 mmHg 53%
    01:00 +18°C° 0 mm 3 mps 721 mmHg 55%
    02:00 +17°C° 0 mm 3 mps 721 mmHg 57%
    03:00 +17°C° 0 mm 3 mps 720 mmHg 58%
    04:00 +16°C° 0 mm 2 mps 720 mmHg 59%
    05:00 +16°C° 0 mm 2 mps 720 mmHg 60%
    06:00 +16°C° 0 mm 2 mps 721 mmHg 58%
    07:00 +17°C° 0 mm 2 mps 721 mmHg 55%
    08:00 +17°C° 0 mm 2 mps 721 mmHg 52%
    09:00 +18°C° 0 mm 3 mps 721 mmHg 47%
    10:00 +20°C° 0 mm 3 mps 722 mmHg 41%
    11:00 +21°C° 0 mm 3 mps 722 mmHg 36%
    12:00 +22°C° 0 mm 3 mps 721 mmHg 34%
    13:00 +24°C° 0 mm 3 mps 720 mmHg 31%
    14:00 +25°C° 0 mm 3 mps 719 mmHg 29%
    15:00 +25°C° 0 mm 3 mps 719 mmHg 29%
    16:00 +25°C° 0 mm 3 mps 718 mmHg 29%
    17:00 +25°C° 0 mm 3 mps 717 mmHg 29%
    18:00 +24°C° 0 mm 3 mps 718 mmHg 32%
    19:00 +21°C° 0 mm 3 mps 718 mmHg 36%
    20:00 +20°C° 0 mm 3 mps 718 mmHg 40%
    21:00 +20°C° 0 mm 2 mps 718 mmHg 44%
    22:00 +19°C° 0 mm 2 mps 718 mmHg 49%
    23:00 +18°C° 0 mm 2 mps 717 mmHg 53%

    22 September, Friday

    Time Temperature Precipitation Wind Pressure Humidity
    00:00 +18°C° 0 mm 2 mps 717 mmHg 57%
    01:00 +17°C° 0 mm 2 mps 716 mmHg 60%
    02:00 +17°C° 0 mm 2 mps 716 mmHg 64%
    03:00 +16°C° 0 mm 2 mps 715 mmHg 67%
    04:00 +16°C° 0 mm 2 mps 715 mmHg 70%
    05:00 +15°C° 0 mm 2 mps 714 mmHg 73%
    06:00 +16°C° 0 mm 2 mps 715 mmHg 71%
    07:00 +17°C° 0 mm 2 mps 715 mmHg 69%
    08:00 +17°C° 0 mm 2 mps 716 mmHg 67%
    09:00 +19°C° 0 mm 2 mps 716 mmHg 60%
    10:00 +21°C° 0 mm 3 mps 717 mmHg 53%
    11:00 +22°C° 0 mm 3 mps 717 mmHg 46%
    12:00 +24°C° 0 mm 3 mps 716 mmHg 42%
    13:00 +26°C° 0 mm 4 mps 716 mmHg 38%
    14:00 +27°C° 0 mm 4 mps 716 mmHg 34%
    15:00 +27°C° 0 mm 4 mps 716 mmHg 33%
    16:00 +27°C° 0 mm 3 mps 716 mmHg 33%
    17:00 +27°C° 0 mm 3 mps 716 mmHg 32%
    18:00 +26°C° 0 mm 3 mps 717 mmHg 36%
    19:00 +24°C° 0 mm 2 mps 717 mmHg 40%
    20:00 +23°C° 0 mm 2 mps 718 mmHg 44%
    21:00 +21°C° 0 mm 2 mps 718 mmHg 47%
    22:00 +22°C° 0 mm 1 mps 718 mmHg 50%
    23:00 +21°C° 0 mm 1 mps 719 mmHg 53%

    23 September, Saturday

    Time Temperature Precipitation Wind Pressure Humidity
    00:00 +20°C° 0 mm 1 mps 718 mmHg 55%
    01:00 +20°C° 0 mm 1 mps 718 mmHg 57%
    02:00 +19°C° 0 mm 1 mps 718 mmHg 59%
    03:00 +19°C° 0 mm 1 mps 718 mmHg 61%
    04:00 +19°C° 0 mm 1 mps 717 mmHg 62%
    05:00 +18°C° 0 mm 1 mps 717 mmHg 64%
    06:00 +19°C° 0 mm 1 mps 718 mmHg 60%
    07:00 +21°C° 0 mm 1 mps 718 mmHg 55%
    08:00 +22°C° 0 mm 1 mps 719 mmHg 51%
    09:00 +23°C° 0 mm 2 mps 719 mmHg 45%
    10:00 +25°C° 0 mm 2 mps 718 mmHg 40%
    11:00 +27°C° 0 mm 3 mps 718 mmHg 35%
    12:00 +28°C° 0 mm 3 mps 717 mmHg 32%
    13:00 +29°C° 0 mm 4 mps 716 mmHg 30%
    14:00 +30°C° 0 mm 4 mps 715 mmHg 27%
    15:00 +30°C° 0 mm 5 mps 715 mmHg 26%
    16:00 +30°C° 0 mm 5 mps 714 mmHg 26%
    17:00 +30°C° 0 mm 6 mps 714 mmHg 25%
    18:00 +28°C° 0 mm 5 mps 714 mmHg 27%
    19:00 +27°C° 0 mm 4 mps 714 mmHg 30%
    20:00 +25°C° 0 mm 4 mps 715 mmHg 32%
    21:00 +24°C° 0 mm 3 mps 715 mmHg 34%
    22:00 +24°C° 0 mm 3 mps 715 mmHg 35%
    23:00 +23°C° 0 mm 2 mps 715 mmHg 37%

    24 September, Sunday

    Time Temperature Precipitation Wind Pressure Humidity
    00:00 +21°C° 0 mm 2 mps 715 mmHg 38%
    01:00 +20°C° 0 mm 2 mps 714 mmHg 40%
    02:00 +20°C° 0 mm 2 mps 714 mmHg 42%
    03:00 +19°C° 0 mm 2 mps 714 mmHg 43%
    04:00 +19°C° 0 mm 2 mps 713 mmHg 45%
    05:00 +18°C° 0 mm 2 mps 713 mmHg 47%
    06:00 +19°C° 0 mm 2 mps 713 mmHg 45%
    07:00 +20°C° 0 mm 2 mps 714 mmHg 42%
    08:00 +21°C° 0 mm 2 mps 714 mmHg 40%
    09:00 +24°C° 0 mm 2 mps 714 mmHg 36%
    10:00 +26°C° 0 mm 2 mps 714 mmHg 32%
    11:00 +27°C° 0 mm 3 mps 714 mmHg 28%
    12:00 +29°C° 0 mm 3 mps 713 mmHg 26%
    13:00 +30°C° 0 mm 3 mps 713 mmHg 24%
    14:00 +32°C° 0 mm 4 mps 712 mmHg 22%
    15:00 +32°C° 0 mm 4 mps 713 mmHg 23%
    16:00 +32°C° 0 mm 4 mps 713 mmHg 23%
    17:00 +32°C° 0 mm 4 mps 713 mmHg 24%
    18:00 +29°C° 0 mm 4 mps 714 mmHg 28%
    19:00 +28°C° 0 mm 4 mps 715 mmHg 32%
    20:00 +26°C° 0 mm 3 mps 716 mmHg 37%
    21:00 +26°C° 0 mm 3 mps 716 mmHg 40%
    22:00 +25°C° 0 mm 2 mps 717 mmHg 43%
    23:00 +24°C° 0 mm 2 mps 717 mmHg 46%
    Show more